Theta_e
325 329 329 339 345 346 346 347 347 347 347 347 347 347 348 347 348 347 347 347 347 347 347 347 347 347 347 347 347 347 347 347 347 346 347 347 347 346 346 347 347 348 348 348 348 349 348 349 349 350 350 350 350 349 349 349 349 348 348 348 347 344 344 344 343 342 344 346 347 348 348 351 352 352 352 352 353 353 352 351 351 348 347 349 351
326 328 330 332 345 346 347 346 347 347 346 346 347 346 346 346 347 346 346 347 346 346 347 347 347 347 347 347 346 346 346 346 346 346 346 346 346 346 346 347 346 347 347 348 348 348 346 348 348 348 347 347 346 346 346 346 346 347 346 345 345 344 342 340 339 341 343 344 344 344 343 346 351 352 352 352 353 352 351 351 350 347 344 350 350
326 327 329 332 345 346 346 346 346 346 346 346 345 346 346 346 346 346 346 346 346 346 347 347 346 346 347 345 346 345 345 345 346 345 345 344 344 344 344 344 345 346 346 346 347 347 346 346 345 344 343 342 342 342 342 342 342 343 343 343 342 338 335 334 337 340 342 342 342 340 340 340 343 346 351 352 351 351 350 349 349 349 347 350 351
326 327 328 334 343 345 346 346 346 346 346 346 345 345 345 346 345 345 345 345 346 345 346 345 346 346 345 345 345 345 345 345 343 343 343 342 341 341 341 341 342 343 344 345 346 346 345 344 343 341 339 337 337 338 338 338 338 338 338 338 336 332 330 332 334 336 339 339 339 337 336 333 335 344 351 351 350 349 348 348 348 348 349 351 352
327 326 327 330 338 342 345 345 345 345 345 345 345 345 345 345 345 345 345 345 345 345 345 345 345 345 345 344 343 343 343 342 341 341 340 339 339 340 339 339 340 341 342 343 343 343 341 340 339 337 335 333 332 333 333 333 333 333 333 332 332 330 329 329 328 330 334 335 336 334 331 332 334 341 350 351 350 349 349 348 348 346 347 349 351
324 324 326 326 328 336 344 345 345 345 345 345 344 345 345 345 345 344 344 345 344 344 344 344 344 343 343 342 343 342 341 340 339 338 338 338 337 337 338 338 338 339 339 339 339 338 337 335 334 333 332 330 330 330 330 331 331 331 330 330 331 329 328 327 324 325 328 328 329 328 329 331 334 335 350 350 350 349 349 348 348 347 346 347 347
323 321 324 324 325 330 341 344 344 344 344 343 343 343 343 343 343 343 342 342 342 343 342 342 342 341 341 341 340 340 339 338 337 336 336 336 336 335 335 335 336 336 337 335 335 334 334 333 332 331 330 329 329 329 329 329 329 329 329 330 329 328 327 327 323 322 322 318 318 322 325 329 331 332 346 349 350 348 348 348 348 348 348 348 348
321 321 322 324 324 331 340 343 342 342 342 342 342 342 342 341 341 341 341 341 341 341 342 341 340 339 339 338 338 338 338 336 335 334 333 333 332 332 332 333 333 334 333 333 333 332 331 330 330 329 328 327 327 328 328 327 328 327 327 327 327 327 326 325 323 322 317 309 312 315 318 325 328 329 342 349 349 348 347 347 347 348 348 348 347
321 320 321 322 323 334 337 342 342 342 341 341 341 341 341 340 340 340 340 340 340 340 340 339 338 338 338 337 337 337 336 334 333 332 331 331 330 329 329 330 331 331 331 330 330 330 328 328 329 328 327 326 326 326 325 325 326 326 326 326 326 326 325 323 321 318 309 307 307 310 313 322 323 325 337 348 349 348 347 347 348 348 348 347 348
320 320 320 321 322 333 336 340 341 340 340 340 340 340 339 340 339 338 338 339 339 338 338 337 336 336 335 335 335 334 333 332 330 329 329 329 328 327 328 328 329 329 330 329 329 328 328 327 327 326 326 326 325 324 323 323 324 325 325 325 323 322 322 321 317 312 306 306 307 310 316 328 321 324 338 345 347 347 347 346 345 344 346 347 347
318 319 319 320 320 333 336 338 339 339 338 337 337 337 337 337 337 336 335 335 334 334 333 334 334 334 333 332 332 332 331 330 329 329 328 327 326 326 326 326 326 327 327 328 328 328 327 326 326 326 325 324 324 323 322 322 323 323 323 322 319 319 320 318 312 305 306 306 308 311 315 324 320 324 343 343 345 347 346 346 345 345 346 347 347
317 317 318 318 325 333 336 337 337 336 336 335 335 335 335 335 335 335 335 334 334 334 334 333 333 332 331 332 331 330 329 329 328 328 326 326 326 325 325 325 325 325 326 326 326 327 327 326 326 325 324 323 323 322 321 321 321 321 321 319 318 317 317 315 306 304 304 305 308 311 311 314 318 331 342 344 347 346 345 344 345 346 346 346 346
316 316 317 316 318 331 334 335 335 335 334 334 334 334 334 334 334 334 334 334 334 334 333 332 332 331 330 330 329 329 328 328 328 327 326 326 325 325 325 324 324 324 324 325 325 325 326 326 325 324 323 322 321 321 320 320 320 320 318 317 316 316 313 312 302 302 304 304 306 306 307 312 318 334 337 341 342 342 341 342 342 343 344 345 345
314 315 316 317 317 326 332 333 334 333 333 333 333 333 333 332 332 333 333 333 333 332 331 331 330 330 329 329 329 328 327 327 326 325 325 325 325 324 324 324 324 324 324 324 324 323 323 323 323 323 322 321 320 320 319 319 318 318 316 315 315 314 310 305 306 300 304 303 305 306 305 312 320 332 334 336 337 337 337 336 336 336 337 338 339
315 313 314 316 316 318 326 331 332 333 332 332 332 332 332 332 331 331 332 331 331 331 330 330 329 329 329 329 328 328 327 326 325 324 324 324 324 324 323 322 322 322 322 322 322 322 322 321 320 320 320 319 319 318 318 318 317 315 314 314 313 312 310 299 301 300 302 305 303 305 305 310 326 330 332 333 334 334 334 334 334 334 334 333 333
314 313 313 314 314 315 320 325 330 331 330 332 331 331 331 331 331 331 331 331 331 330 329 329 328 328 328 327 327 326 326 325 324 323 323 323 323 322 322 321 321 321 321 320 320 320 319 319 318 317 317 318 318 318 317 316 315 313 312 311 310 310 309 303 298 298 300 302 301 305 305 311 325 328 329 331 332 332 332 332 332 332 332 332 332
312 312 313 313 312 313 317 319 322 327 328 329 329 330 330 330 330 330 330 330 330 329 328 327 326 326 326 326 325 324 324 324 322 322 322 322 322 321 321 321 321 320 321 320 320 319 318 317 316 315 316 317 317 316 315 314 313 312 310 309 309 309 307 303 297 297 298 304 301 302 304 312 322 327 328 329 330 330 330 330 330 330 330 330 330
309 310 313 312 311 312 315 315 318 321 319 325 326 328 329 329 329 329 328 328 327 327 326 325 324 323 322 322 321 321 321 322 321 320 320 319 319 319 319 319 320 319 319 319 318 317 316 315 314 313 314 314 314 314 313 312 311 310 308 308 307 307 305 302 295 296 297 304 298 303 305 318 322 325 327 327 328 328 327 327 328 328 328 329 329
306 308 311 310 311 310 312 312 313 314 315 315 317 322 326 326 327 327 326 326 326 326 325 324 323 321 320 318 318 318 319 319 319 318 317 317 318 318 318 319 319 318 318 317 316 315 314 313 312 312 311 311 312 312 312 310 309 307 307 306 306 304 303 298 294 295 296 297 298 297 305 317 320 324 325 325 326 326 325 325 326 326 327 328 328
305 307 308 309 310 309 309 310 310 311 310 310 312 313 321 323 324 325 325 325 325 324 323 323 320 318 317 316 314 311 312 312 315 312 314 314 315 314 316 317 317 317 316 316 315 314 313 312 311 310 309 308 308 309 309 308 307 306 305 305 303 300 294 293 293 294 294 297 300 295 311 315 318 322 324 324 324 324 324 324 325 325 325 326 326
305 306 307 308 308 309 308 308 307 308 308 308 309 310 314 320 321 322 322 323 322 321 321 318 314 313 311 310 307 300 299 299 301 302 308 304 311 313 313 315 315 314 314 314 313 312 311 311 310 308 306 305 303 303 304 306 305 305 304 302 299 293 293 293 293 295 294 295 297 297 310 312 315 320 322 323 323 323 323 323 324 324 325 325 325
304 305 305 307 307 307 308 307 306 306 306 307 308 308 309 317 310 311 311 316 318 317 311 305 308 303 309 302 297 299 295 296 299 305 301 303 306 311 311 311 312 312 312 312 312 310 309 309 308 306 305 303 300 291 293 298 301 302 301 299 292 291 292 292 292 292 294 293 297 302 309 312 314 317 320 321 321 321 322 322 322 323 324 324 324
302 304 305 305 306 307 306 306 306 305 304 304 305 306 306 307 305 306 308 313 310 306 302 303 297 297 296 295 297 296 295 297 298 300 302 307 305 309 309 309 309 309 309 310 309 308 307 306 306 304 302 299 291 289 289 289 290 296 296 291 289 290 291 291 291 290 291 294 292 304 307 310 313 315 318 319 320 320 321 321 321 322 323 323 324
304 304 305 305 305 306 306 306 305 303 303 303 304 304 304 302 303 303 304 304 302 300 298 297 296 295 294 294 293 294 295 296 306 307 305 300 304 307 306 304 304 303 302 301 306 306 306 303 302 300 297 293 288 289 289 289 289 289 289 289 289 289 290 290 289 290 290 293 293 303 305 309 312 314 316 318 319 318 319 320 321 322 322 322 323
302 302 301 303 304 305 306 305 304 302 302 302 303 302 301 300 300 300 301 299 298 296 296 295 295 294 293 293 292 294 294 296 295 294 293 294 292 292 293 292 292 292 296 288 289 292 290 288 289 292 288 290 289 289 289 288 289 289 289 289 289 289 289 289 288 288 289 289 293 301 303 306 310 313 315 317 318 318 318 319 320 321 321 321 322
296 298 300 302 303 304 305 304 302 301 301 302 302 303 301 299 298 298 297 297 296 294 295 294 294 294 292 293 295 293 294 294 292 291 291 291 290 289 289 289 289 290 292 287 287 287 287 288 288 289 288 288 288 288 289 290 288 288 288 288 288 288 288 288 287 287 288 288 291 299 301 303 307 310 312 315 316 317 317 318 318 319 320 321 321
296 298 299 300 301 302 303 303 302 300 300 300 300 301 300 298 297 296 296 295 293 294 294 293 293 293 292 294 293 292 292 291 291 290 289 289 289 288 288 288 288 288 289 287 287 287 287 287 287 287 287 287 287 287 288 287 287 288 288 287 287 287 287 287 287 287 287 288 292 296 300 302 305 308 311 313 315 316 317 317 318 318 319 319 320
295 296 296 298 299 300 301 301 301 300 299 298 299 299 299 296 296 298 297 296 295 294 294 293 293 293 293 294 293 292 292 291 290 289 289 289 289 288 288 287 287 287 289 287 287 286 286 286 286 286 287 286 287 287 287 287 286 286 287 286 287 286 286 286 287 287 287 287 288 293 298 301 303 306 309 311 313 314 315 316 317 317 317 319 319
295 295 296 296 297 299 300 300 301 300 299 297 298 298 297 296 294 295 295 298 294 294 294 293 292 293 293 293 293 291 290 290 290 290 288 289 289 288 287 287 287 287 288 286 287 286 286 286 287 286 285 285 286 286 286 286 285 286 286 286 286 286 286 286 286 286 286 286 286 290 296 299 302 304 306 309 311 312 313 314 316 316 317 318 318
296 296 295 296 296 297 298 299 300 300 299 296 297 296 296 295 294 294 294 297 293 293 293 293 292 292 292 293 292 291 291 290 290 289 289 288 288 288 287 287 286 286 286 286 286 286 286 285 286 285 286 285 285 288 286 285 285 285 286 285 285 285 285 285 285 285 286 286 286 288 293 296 299 303 304 306 309 310 312 312 313 315 316 317 317
296 295 295 295 296 296 297 298 298 300 298 296 295 295 295 294 294 293 294 295 293 293 293 292 291 292 293 292 292 292 291 290 289 289 288 288 287 287 286 286 285 286 286 286 287 286 286 286 286 285 285 285 285 286 285 284 284 284 285 285 285 285 285 285 285 285 285 285 285 286 289 293 297 299 302 304 306 308 309 310 311 313 314 315 315
295 295 296 296 295 295 296 297 297 298 298 296 295 294 294 294 293 293 293 294 293 292 292 292 292 291 292 292 291 291 291 289 289 289 288 287 287 287 286 285 285 285 286 286 286 286 286 286 286 285 285 285 285 285 285 284 283 284 284 284 284 285 284 284 284 285 285 285 285 285 286 289 293 297 299 302 304 306 307 307 309 310 312 313 313
297 297 296 295 294 295 296 296 297 297 297 296 295 294 293 294 293 292 293 294 293 292 292 292 292 291 291 292 291 290 291 290 289 289 290 287 287 286 285 286 285 285 286 286 286 286 286 286 286 286 284 284 284 284 285 283 283 283 283 284 284 284 284 284 285 285 285 285 284 284 285 287 287 291 295 298 300 303 305 306 307 308 310 310 311
297 296 295 295 295 296 296 296 296 296 297 297 296 294 293 293 294 292 293 293 293 292 292 291 292 291 291 291 291 290 290 289 289 288 288 286 286 286 286 285 285 285 286 286 285 284 284 285 285 286 288 283 283 283 283 283 282 283 283 283 283 283 284 284 284 284 284 284 284 284 285 285 285 286 288 294 296 300 303 304 305 306 307 308 309
297 296 295 296 295 295 296 295 296 296 297 297 296 295 293 293 293 292 293 293 292 292 291 290 291 291 290 290 290 290 290 289 289 288 287 286 286 286 285 285 285 286 285 285 285 284 285 284 284 283 282 282 282 284 282 282 282 283 283 284 283 284 283 284 284 283 283 283 284 284 285 285 285 286 288 287 292 295 299 302 303 304 305 306 307
297 297 297 296 295 295 296 295 295 295 296 297 296 295 294 293 293 294 292 293 292 292 291 290 290 290 290 289 290 290 290 289 288 288 287 286 286 286 285 284 285 285 284 284 285 284 284 285 284 282 281 282 282 281 282 282 282 283 283 283 283 285 283 283 283 283 284 284 284 284 284 284 285 285 292 287 287 290 296 299 301 302 303 303 303
298 298 297 295 295 294 295 295 294 295 295 296 296 295 294 293 293 293 292 293 292 292 291 290 289 289 289 289 289 290 289 288 288 288 287 286 285 285 285 285 285 284 284 284 283 284 284 284 283 284 281 281 281 281 281 282 282 282 282 282 282 284 282 283 283 283 286 283 283 283 284 284 287 291 285 286 286 287 292 297 299 299 300 299 299
297 298 297 296 295 295 295 295 295 295 295 295 295 294 294 293 292 292 293 292 292 292 290 289 289 289 289 289 289 290 289 288 288 287 286 286 285 285 284 284 284 284 283 283 283 284 283 283 282 282 281 281 281 281 281 281 282 282 282 282 282 282 282 282 283 287 282 283 283 283 284 285 285 285 286 286 286 287 288 291 295 297 297 296 298
297 297 297 296 296 295 295 295 295 294 294 295 295 293 292 291 290 290 290 291 291 289 289 289 289 288 289 289 289 289 289 288 287 287 286 286 285 284 284 284 284 283 283 283 282 283 283 281 282 281 282 281 281 281 281 282 282 282 282 282 281 282 282 282 284 282 282 282 285 288 286 285 284 285 285 285 286 286 287 287 286 287 287 293 296
297 296 296 295 295 294 294 294 294 294 294 294 293 292 291 291 290 288 288 290 290 289 288 290 289 289 289 288 288 289 289 288 287 286 285 285 284 284 284 283 283 283 283 282 282 282 282 281 281 281 282 282 282 281 280 281 280 280 283 282 281 281 281 284 283 282 285 282 282 284 283 284 283 282 283 284 285 285 285 285 287 284 285 288 293
296 295 295 294 294 294 293 293 294 294 294 293 292 291 290 289 289 290 290 290 290 289 288 289 289 289 289 288 288 288 288 287 287 286 285 286 284 283 283 283 283 283 283 282 283 282 281 281 283 282 280 280 280 280 280 280 279 278 279 279 279 281 284 284 282 282 282 281 281 281 282 282 281 281 281 282 283 283 283 284 284 283 284 283 286
295 295 295 295 294 294 293 294 294 293 294 293 293 292 292 292 291 290 291 291 290 289 288 288 289 289 288 288 287 288 287 287 287 285 285 284 283 283 283 283 283 282 282 282 281 284 282 282 282 279 280 279 279 280 280 278 278 277 278 279 278 280 282 281 281 280 281 282 281 281 281 282 282 282 282 282 282 283 283 283 283 283 283 284 285
296 295 295 295 294 293 293 293 293 293 293 294 293 292 292 292 292 291 291 290 290 290 289 289 288 288 288 288 287 287 287 286 286 286 285 284 284 283 283 283 282 283 282 281 282 282 281 281 281 280 279 280 280 282 279 278 277 278 278 278 276 277 281 278 279 280 281 281 281 281 282 281 282 281 282 282 282 282 283 283 282 283 283 284 284
295 294 294 294 294 293 293 293 293 293 293 293 294 293 293 291 289 288 289 289 287 288 287 286 286 286 287 287 287 287 286 286 286 285 285 284 283 283 283 283 282 283 282 282 281 281 280 280 280 281 280 278 277 279 281 279 277 278 278 277 275 277 276 276 276 280 279 279 280 280 281 281 281 281 282 282 282 282 282 282 283 283 283 283 283
295 295 294 294 294 293 293 293 293 293 293 293 293 292 291 288 287 287 287 285 286 286 285 284 286 287 287 286 287 286 286 286 285 285 285 284 283 283 283 283 282 282 282 282 282 282 281 281 281 281 279 279 277 277 280 279 279 278 278 277 276 277 276 275 276 276 277 278 279 280 282 281 280 281 281 281 281 281 282 282 282 282 282 282 283
294 295 295 295 294 293 293 292 292 292 292 292 293 292 291 289 287 287 286 286 285 285 286 287 286 286 287 287 286 286 286 286 285 285 285 284 283 283 282 282 282 282 282 282 281 280 280 280 281 281 278 278 279 278 277 281 280 281 278 276 277 277 275 275 277 276 278 280 278 279 279 279 279 279 279 279 280 280 282 281 281 281 282 282 282
295 295 294 293 293 293 292 292 292 292 292 292 292 291 290 289 289 289 289 288 288 287 289 289 288 287 286 286 286 285 285 285 285 284 284 284 283 282 282 282 282 282 282 280 280 280 280 280 281 280 279 280 279 277 278 278 278 278 280 279 280 278 276 276 275 276 274 276 277 277 278 278 278 278 279 279 280 280 280 281 281 280 280 281 281
294 292 293 292 292 292 291 292 292 292 292 292 291 291 290 289 289 289 289 289 289 289 288 288 287 286 286 285 285 285 285 285 285 284 284 284 283 282 282 282 281 281 282 281 281 280 280 281 281 280 280 280 279 279 278 278 277 278 279 278 279 278 277 278 276 276 276 273 276 278 278 277 277 278 279 278 279 279 279 279 279 280 280 280 281
293 293 293 292 292 291 291 291 291 291 291 291 291 291 291 290 289 289 289 290 289 289 287 287 286 286 285 284 285 285 285 285 285 284 284 283 284 282 281 281 281 281 282 281 280 280 280 280 280 279 279 279 279 278 279 278 277 277 278 277 277 276 276 276 277 277 276 273 274 275 276 276 277 278 278 278 279 279 279 279 279 281 281 282 281
292 292 291 291 291 290 290 290 290 290 290 290 291 290 290 290 289 289 289 289 288 285 285 285 285 284 285 284 285 284 284 284 284 284 283 283 283 282 282 281 281 281 282 280 280 279 280 280 280 280 279 279 279 278 278 278 278 278 278 278 276 276 275 275 275 275 275 275 274 274 275 274 274 276 278 278 278 278 279 279 279 279 279 279 280
290 290 290 290 290 290 290 289 290 290 290 290 290 290 290 290 289 289 289 289 288 286 284 284 284 283 284 284 284 284 284 284 284 283 283 283 283 283 282 281 281 281 282 280 280 280 280 280 280 279 279 279 279 278 281 278 278 278 277 277 277 277 276 275 275 275 274 273 273 274 274 275 274 274 276 277 279 279 279 279 278 278 279 279 279
Wind_Speed
7 7 4 5 10 12 13 13 13 12 13 13 13 12 12 11 10 10 10 10 9 9 8 8 9 9 8 9 10 9 10 10 9 9 11 10 11 10 10 10 10 11 11 10 11 11 11 12 11 13 14 15 14 13 13 13 13 12 12 13 12 11 11 13 13 13 13 13 13 13 12 10 8 8 8 10 10 9 9 10 9 6 5 7 9
12 6 5 4 12 11 13 14 14 13 13 13 13 12 12 11 11 10 10 10 9 9 10 9 9 9 10 11 9 10 9 10 9 10 10 10 10 10 10 11 11 11 11 11 11 12 11 13 15 15 14 14 13 13 13 13 14 14 13 11 11 10 11 12 13 13 13 13 13 12 12 12 10 7 7 9 9 9 9 10 10 6 3 10 10
7 6 4 5 11 12 13 13 14 14 14 13 13 12 12 11 11 10 10 10 10 10 10 10 9 10 11 9 10 10 10 10 10 10 10 10 9 9 9 10 11 12 12 11 12 13 13 15 14 14 14 14 14 14 14 14 13 13 13 12 12 11 11 12 13 13 13 12 12 12 11 10 10 10 5 8 10 10 9 9 9 6 6 10 9
9 6 4 5 11 11 14 13 13 13 13 13 12 12 12 11 11 10 10 10 10 10 10 10 11 11 10 11 10 10 10 10 9 9 8 9 9 9 9 9 10 11 12 13 14 15 15 17 15 14 14 14 14 14 14 14 13 13 13 12 12 13 13 13 13 13 12 11 11 9 5 5 6 9 6 8 11 10 9 9 8 10 10 10 10
8 6 4 4 6 9 12 14 15 13 13 13 13 13 12 11 11 11 10 11 11 10 9 9 9 10 9 9 9 9 10 9 8 8 8 9 9 10 9 9 10 10 12 14 15 15 16 15 13 13 14 14 14 14 14 14 14 14 14 13 14 14 14 14 14 14 12 11 10 7 5 6 6 9 9 8 10 9 8 8 9 10 10 11 11
6 5 4 4 4 6 13 14 15 15 14 14 14 14 14 13 12 12 11 10 10 10 10 9 9 7 8 8 8 8 8 7 6 7 9 10 11 11 11 10 10 10 12 13 13 13 13 12 12 13 13 13 13 13 13 14 14 14 14 14 14 14 14 14 14 14 12 12 10 6 6 6 6 6 10 7 9 8 7 9 10 10 10 11 11
6 4 4 4 4 5 11 14 15 15 14 13 12 12 12 12 11 10 10 10 8 9 8 8 7 7 7 7 7 7 7 7 6 7 10 11 11 11 11 11 11 11 11 12 12 12 12 12 12 12 13 13 13 13 13 13 13 14 14 14 14 14 15 14 14 14 12 8 6 6 6 6 6 4 10 7 6 8 8 9 10 9 10 10 11
4 4 4 4 4 5 11 14 15 13 13 13 13 12 12 12 11 11 9 9 9 9 9 9 8 7 6 6 7 7 8 7 7 9 11 11 11 11 11 11 11 11 11 12 12 12 12 12 12 12 12 13 13 13 13 13 14 14 14 15 15 15 15 15 14 13 13 6 6 5 6 6 6 5 9 10 6 7 8 9 8 8 9 10 8
6 4 4 4 4 6 9 11 14 14 14 13 13 13 13 12 12 11 12 11 11 11 11 9 9 8 8 8 8 9 9 8 8 10 11 11 11 11 11 12 12 11 12 12 12 12 12 12 12 12 12 12 12 12 13 13 14 14 14 15 15 15 15 15 13 13 8 6 6 5 6 5 5 5 8 12 6 7 8 6 6 7 8 8 6
6 5 4 4 4 6 8 11 16 16 15 15 14 14 14 13 12 13 13 12 12 12 10 10 10 10 10 10 9 10 10 10 10 11 11 11 11 11 12 12 12 12 12 12 11 12 12 12 12 12 12 12 12 13 13 13 14 14 14 15 16 16 15 15 14 10 6 6 6 6 6 9 4 5 7 10 8 7 6 4 4 4 4 6 7
6 6 5 4 5 8 10 12 13 14 15 15 15 15 16 15 14 14 13 12 12 11 12 12 11 11 11 11 11 11 11 11 11 11 11 11 11 11 12 12 12 12 12 11 12 12 12 12 12 12 13 12 12 12 13 13 13 14 15 15 16 16 15 15 12 6 6 7 6 7 7 11 6 5 7 9 9 7 5 3 5 6 7 8 9
6 5 4 4 6 10 11 13 15 14 15 14 15 15 13 13 14 14 14 13 13 13 12 13 13 12 12 12 11 11 11 11 11 11 11 11 11 11 11 12 11 11 11 11 12 12 12 12 12 12 12 12 12 12 13 13 14 14 15 16 16 16 15 15 8 7 6 7 7 7 7 7 8 8 14 13 14 13 11 11 11 11 11 10 11
7 5 4 4 4 8 10 14 14 16 16 16 16 16 15 15 15 14 14 14 14 13 13 13 13 12 12 11 11 11 11 11 11 12 11 12 11 11 11 11 11 11 11 11 11 12 12 12 12 12 12 12 12 12 13 13 14 14 15 15 16 16 14 15 7 7 7 7 7 8 8 7 8 13 14 15 15 15 15 14 14 14 15 15 14
7 6 5 4 4 6 8 11 13 16 16 16 16 16 16 16 16 15 15 15 14 14 14 13 13 12 12 12 12 12 12 12 12 12 12 11 11 11 11 11 11 11 11 11 11 12 12 12 12 12 12 12 12 13 13 13 14 14 15 15 16 16 15 10 9 7 7 7 7 7 7 7 7 15 15 14 14 14 15 15 15 15 15 15 15
8 6 5 4 4 4 8 10 10 13 14 16 16 15 16 16 16 15 15 15 15 15 14 14 13 13 13 13 12 12 12 12 12 12 12 12 11 12 12 11 11 11 11 11 11 11 12 12 12 12 12 12 12 13 13 13 14 14 15 15 15 16 15 6 7 6 7 7 7 7 8 6 14 15 15 14 14 14 14 15 15 16 15 15 15
7 6 4 4 4 4 4 8 10 11 12 13 15 15 16 16 16 16 16 15 15 15 14 14 14 13 13 13 13 13 13 13 12 12 12 12 12 12 12 12 12 12 11 11 11 11 12 12 12 12 12 12 12 13 13 13 14 14 15 15 15 15 15 8 6 7 6 7 7 6 7 6 17 16 15 15 14 14 14 14 14 14 14 14 14
5 6 6 5 4 4 5 5 6 10 10 11 12 13 15 16 16 16 16 15 15 14 14 14 14 14 13 13 13 13 13 13 13 13 12 12 12 12 12 12 12 12 12 12 12 12 12 12 12 12 12 12 12 12 13 13 14 14 14 15 15 15 14 10 6 6 6 6 6 6 7 6 14 15 16 15 15 15 15 15 15 15 14 14 14
4 5 7 6 5 4 4 4 5 6 5 8 10 12 12 15 16 15 14 14 15 15 15 14 14 14 13 13 13 12 13 12 12 12 12 12 13 12 12 12 12 12 12 12 12 12 12 12 12 11 11 12 12 12 13 13 14 14 14 15 14 14 13 10 6 5 6 6 6 6 6 10 15 14 15 15 15 15 15 16 16 16 15 15 14
3 4 4 5 6 4 5 4 4 4 5 5 5 7 11 12 12 13 14 14 14 14 14 14 14 13 14 13 12 11 11 12 12 12 12 12 12 11 12 12 12 12 12 12 12 12 12 12 12 12 12 12 12 12 13 13 14 14 14 14 14 13 12 7 6 6 5 5 6 6 6 15 14 13 13 13 14 15 15 15 15 15 15 15 14
4 4 5 5 5 5 4 5 4 4 4 5 5 5 8 10 11 12 13 13 14 14 14 13 11 11 11 11 10 8 8 7 10 7 10 11 9 6 11 12 12 12 12 12 12 12 12 12 12 12 12 12 12 12 13 13 13 13 14 13 12 11 7 6 5 6 6 6 6 6 9 15 14 13 12 12 12 13 13 14 14 14 14 14 14
4 6 6 6 5 6 6 5 5 5 5 5 5 5 5 9 9 10 11 11 11 12 12 11 10 10 9 9 9 6 5 5 6 5 7 5 7 9 11 11 12 12 12 12 12 12 12 12 12 12 12 12 12 12 12 13 13 13 13 12 10 7 6 6 6 5 6 6 7 6 13 13 13 13 12 12 12 12 13 13 13 14 14 14 14
8 7 7 7 7 7 7 6 6 6 5 5 4 4 4 7 5 5 5 7 8 9 7 6 7 5 8 7 5 5 6 5 5 6 4 5 6 9 10 11 11 11 11 11 11 12 12 12 12 13 12 11 10 5 5 8 11 11 11 10 7 5 5 5 5 5 5 5 6 8 15 14 13 14 13 13 12 12 12 12 12 13 13 13 13
9 9 9 10 8 7 6 8 7 6 6 5 4 4 4 4 5 4 4 6 5 5 5 5 5 5 5 5 5 5 5 5 5 5 5 8 7 9 11 11 11 10 10 10 10 11 12 12 12 12 11 10 5 5 4 4 4 7 7 5 5 5 5 5 5 6 5 5 5 11 13 14 13 13 13 12 12 12 13 12 12 12 12 13 13
13 12 11 7 8 10 10 9 8 8 7 6 5 5 4 4 4 4 4 5 5 5 5 5 5 5 5 5 5 4 4 5 7 8 7 5 7 9 11 10 10 10 10 7 9 9 11 11 11 10 7 4 4 4 4 3 4 3 4 4 4 4 5 4 5 5 5 5 6 13 13 13 13 13 12 12 12 12 12 13 13 13 12 12 12
10 6 5 11 12 11 10 10 8 8 8 7 6 6 5 4 4 5 5 5 5 6 6 5 4 5 5 5 5 4 4 4 4 5 5 5 5 5 5 5 5 5 6 5 5 5 5 5 4 4 3 4 4 4 3 4 3 4 4 4 4 3 4 4 4 4 5 5 5 13 13 13 13 13 12 11 11 12 12 12 12 13 13 12 13
5 9 14 12 13 12 11 9 8 8 9 8 8 7 6 6 6 5 5 5 6 6 6 6 6 5 5 5 5 5 5 5 4 4 4 5 5 5 5 5 4 4 4 6 4 3 3 3 3 4 3 4 3 3 3 3 4 5 5 5 5 5 5 5 4 5 4 5 5 13 13 13 13 12 12 12 11 11 11 12 12 12 12 12 12
10 13 10 9 9 9 10 9 11 9 10 7 7 7 7 6 6 6 7 6 6 7 7 6 6 5 5 6 7 6 6 6 5 4 5 4 5 5 5 4 4 4 3 6 4 3 3 3 4 3 3 3 3 3 3 3 3 4 4 4 4 5 5 5 5 5 5 5 6 12 12 12 12 12 12 11 11 11 11 11 12 11 11 12 12
6 9 9 10 11 14 11 10 11 10 9 8 8 8 7 7 7 6 7 8 7 7 7 7 6 7 5 6 5 6 7 7 6 6 5 4 5 4 4 4 4 4 3 4 5 3 4 3 3 3 3 3 3 3 3 3 3 3 3 3 3 4 5 5 5 5 5 5 5 9 13 13 12 12 12 12 12 12 12 12 12 11 11 12 11
13 12 10 11 13 12 12 14 12 12 10 9 9 8 7 7 7 7 8 7 8 8 8 7 7 6 6 6 6 7 6 6 6 6 5 6 5 5 5 5 4 4 4 4 4 5 4 4 3 4 3 3 3 3 2 2 2 2 3 3 3 4 5 5 5 5 5 5 5 7 13 13 13 13 13 13 12 12 12 12 12 12 11 11 11
17 13 12 13 10 11 14 16 15 13 11 10 9 9 9 9 9 9 8 8 8 7 6 7 7 7 7 6 6 6 7 8 7 5 7 6 5 5 5 5 5 5 5 5 5 5 6 4 4 3 4 3 3 2 2 2 2 2 3 4 4 5 4 4 5 5 5 5 5 5 10 12 12 13 13 13 13 13 13 13 12 12 12 12 11
11 13 13 12 10 12 14 15 13 11 10 11 10 10 9 10 10 9 8 9 8 7 7 7 7 7 7 7 6 6 6 6 6 6 5 5 5 6 5 5 5 5 5 5 4 5 5 6 6 6 5 4 4 2 3 3 2 3 3 4 4 4 4 4 3 4 5 5 5 4 5 10 11 12 12 13 14 14 14 14 13 13 13 12 12
13 17 14 10 10 15 15 14 14 13 12 12 10 10 11 11 10 8 9 8 7 8 7 7 7 7 7 7 6 6 6 6 6 6 6 6 6 6 6 6 6 5 5 5 6 5 5 4 4 4 4 3 3 2 1 3 3 4 3 4 3 4 4 3 3 4 4 4 5 5 5 5 9 11 11 12 13 14 14 14 14 13 13 13 12
14 15 11 10 15 14 14 15 14 13 14 14 13 11 10 9 9 10 8 8 8 7 8 8 8 7 7 8 7 7 6 7 7 7 6 6 6 7 6 6 6 6 5 5 5 5 5 5 4 3 3 3 3 3 2 4 5 4 4 4 4 3 3 3 3 4 4 4 5 4 5 4 5 8 11 12 12 13 13 14 14 14 13 13 13
12 9 9 14 14 9 10 10 13 15 16 13 12 10 11 10 9 8 8 8 8 8 9 8 8 7 7 8 8 7 7 6 7 6 6 6 6 6 7 6 6 5 5 5 6 6 6 5 5 5 3 3 4 3 3 5 4 2 3 3 3 3 3 3 3 3 3 3 4 3 5 4 5 5 5 9 11 12 13 14 14 13 13 13 12
10 10 16 20 14 12 11 11 14 16 15 14 14 13 11 10 10 9 9 9 8 8 8 7 7 8 7 8 8 8 7 7 7 8 7 6 6 6 7 6 6 5 6 5 6 5 5 6 5 6 3 4 3 3 3 4 3 4 4 3 3 3 3 3 2 3 3 3 3 3 4 5 5 4 4 5 7 11 13 13 13 14 14 13 12
17 18 17 11 14 14 14 14 14 16 16 16 15 13 12 11 10 9 8 8 8 8 8 8 8 7 7 7 8 8 8 8 8 7 8 7 7 7 7 6 6 6 6 5 5 6 5 5 3 5 6 3 3 3 2 3 2 3 3 3 3 2 3 2 3 3 2 2 3 3 3 3 3 3 4 4 5 5 10 11 13 14 14 13 13
19 16 15 14 15 15 15 16 17 19 18 17 14 12 11 11 11 10 10 9 9 9 8 7 7 7 7 8 8 9 8 9 9 8 8 8 7 7 7 7 6 6 6 6 5 5 6 5 3 2 3 5 3 3 2 2 2 2 2 3 2 2 2 2 2 2 2 3 3 3 3 3 2 4 3 3 3 4 6 9 9 11 11 12 14
15 16 16 17 19 17 16 17 16 16 14 15 14 13 11 10 8 8 8 9 9 8 7 7 8 8 8 8 9 9 9 9 9 8 8 8 7 7 7 7 6 6 6 5 6 4 4 5 5 2 3 4 3 3 2 2 1 2 3 3 3 1 1 1 1 1 2 3 3 3 3 3 3 4 4 4 3 4 3 5 8 8 8 10 13
13 15 15 15 12 11 12 14 14 14 14 13 12 10 8 6 5 6 7 8 7 7 7 8 8 8 9 9 9 9 9 9 9 9 9 8 7 7 7 6 6 6 6 6 5 5 4 3 5 4 3 3 5 2 1 1 1 1 2 3 3 2 1 1 0 1 0 1 2 3 3 4 3 3 4 3 3 3 3 4 4 4 5 10 12
12 11 13 13 13 11 11 11 12 13 11 10 9 9 8 9 10 6 6 8 8 8 8 9 8 9 9 9 9 9 8 9 10 9 8 8 8 8 8 6 6 7 7 7 6 6 7 6 5 5 5 3 3 3 2 3 1 2 1 3 3 2 2 0 0 0 1 3 3 2 3 3 2 3 2 3 3 3 3 3 3 5 4 6 11
11 12 13 14 15 17 15 17 16 15 14 14 13 13 13 10 8 12 13 11 11 10 9 9 10 10 10 10 10 9 9 9 9 9 9 8 7 7 7 7 6 7 7 7 6 6 5 5 6 3 4 3 3 3 3 2 4 2 3 4 5 3 1 1 0 1 1 3 2 2 3 3 3 3 3 3 3 3 3 3 3 3 4 4 5
13 13 17 19 19 17 18 17 13 14 16 16 15 15 15 17 17 16 14 12 11 12 12 11 11 8 8 9 9 9 10 10 9 9 9 8 9 8 8 8 8 7 5 4 5 5 5 5 6 4 2 3 2 2 2 0 5 2 2 6 5 5 2 2 2 1 1 2 2 2 2 2 4 3 3 4 4 4 4 3 3 4 4 5 4
16 18 19 16 14 14 15 14 14 16 16 15 14 15 13 11 12 10 13 9 8 8 7 7 6 8 9 10 9 9 10 9 9 10 9 9 9 8 9 8 7 7 7 7 6 7 6 7 5 7 5 2 2 0 2 1 3 1 1 1 3 5 4 5 3 3 3 2 1 2 2 3 4 3 3 3 5 5 4 4 4 4 4 5 5
10 10 10 15 14 15 15 15 15 15 14 15 15 13 11 8 5 4 5 6 6 6 5 5 6 6 10 10 9 10 11 10 10 10 9 8 8 9 7 7 8 7 8 9 8 8 7 6 5 4 8 4 1 0 1 1 4 5 1 2 0 1 3 2 5 7 3 2 0 1 2 3 3 3 3 3 5 5 5 4 4 4 5 5 5
13 14 15 15 13 18 17 18 16 16 15 15 15 11 9 7 6 6 6 6 5 6 5 5 9 11 8 9 12 10 10 10 10 10 9 10 8 8 8 8 8 7 6 8 9 9 8 7 7 7 6 8 5 2 0 1 0 0 5 3 1 1 3 2 2 6 2 3 1 2 1 2 3 2 2 3 3 4 4 5 5 4 5 5 5
13 15 15 16 13 13 13 13 11 12 13 14 15 13 13 14 12 11 10 9 8 9 13 16 14 13 15 7 6 10 10 10 9 10 10 8 9 8 7 8 8 7 7 7 6 6 6 8 8 7 6 3 7 5 2 0 1 1 1 1 2 2 1 2 1 4 3 3 3 1 1 2 3 4 2 3 4 5 4 6 4 5 5 6 5
16 10 8 10 12 11 13 14 14 13 13 14 16 13 13 13 16 17 16 16 16 13 13 11 11 10 7 10 10 8 10 11 9 9 9 8 8 8 8 8 7 7 6 6 7 9 8 7 6 6 6 6 7 5 7 5 1 1 1 1 3 3 3 4 3 1 6 4 1 2 2 2 4 3 3 4 5 6 5 4 5 6 6 5 4
9 7 9 9 12 13 13 14 12 12 12 13 15 15 16 15 15 14 13 14 15 15 13 10 7 7 9 9 9 9 10 10 10 10 10 9 9 9 8 8 8 8 8 8 8 7 6 5 6 5 5 6 7 9 7 7 7 3 1 1 3 3 3 4 3 3 1 4 9 1 2 1 1 5 5 4 3 5 8 7 6 7 7 6 4
8 11 11 11 11 11 12 11 12 12 12 15 16 15 14 15 15 14 14 13 12 8 6 7 8 9 10 8 10 10 10 10 10 11 11 11 10 10 10 9 9 9 8 7 6 8 10 10 9 8 8 7 5 6 8 8 6 7 6 1 3 3 3 2 2 3 3 2 8 7 7 1 2 7 3 1 5 6 6 6 5 6 7 7 4
8 7 7 8 9 10 12 13 13 12 12 14 14 15 15 13 14 15 16 13 10 7 7 9 9 9 11 11 10 10 11 10 11 11 11 11 11 10 11 11 11 9 8 9 8 8 8 8 9 9 8 8 5 7 8 8 6 6 7 8 5 4 2 1 1 3 1 4 7 6 8 10 11 4 5 7 5 5 5 5 5 6 6 6 5
6 8 9 10 10 11 12 14 15 12 13 15 16 18 15 15 15 17 18 16 13 11 9 10 9 9 12 12 11 11 9 11 10 10 12 11 11 11 11 11 9 9 9 9 10 10 9 9 7 7 8 9 8 7 5 6 6 7 7 8 9 9 9 7 7 6 5 4 3 8 9 4 5 12 6 3 5 10 8 5 6 6 7 6 5
Wind_Direction
214 175 198 210 178 168 166 162 162 161 162 165 165 163 163 159 157 156 157 159 158 158 156 156 157 151 153 143 141 127 118 109 101 103 93 81 78 80 74 71 69 67 65 68 73 72 71 64 59 56 50 46 46 49 46 47 49 59 51 45 41 29 17 7 13 14 10 9 11 14 12 17 46 74 75 75 70 64 57 44 44 38 34 29 31
170 183 167 186 168 170 164 160 158 160 160 162 162 164 163 160 159 159 158 159 159 157 152 151 151 144 140 136 133 123 112 110 101 88 83 81 71 66 68 67 64 65 66 64 65 68 65 61 52 49 48 46 45 45 45 40 34 38 48 46 42 33 20 8 9 14 12 11 11 11 12 12 25 60 79 77 77 67 62 57 53 46 24 36 34
139 154 165 177 169 167 162 159 158 160 160 157 159 159 159 158 157 158 159 160 154 154 149 145 145 137 132 131 121 120 116 99 91 84 77 79 76 71 67 62 56 55 56 59 60 61 59 60 54 50 46 44 41 40 40 41 40 38 38 36 35 29 23 14 10 15 15 13 11 10 11 9 359 352 27 73 74 67 57 57 52 41 30 35 35
143 158 160 176 169 168 159 158 154 153 152 153 152 152 153 155 152 154 154 151 149 146 141 143 137 130 133 123 114 107 94 92 94 96 93 88 83 78 72 69 64 59 54 53 54 56 58 55 50 47 43 39 36 35 34 34 35 34 33 31 27 25 22 18 15 14 15 17 13 12 10 1 348 349 45 63 71 63 55 49 42 39 31 27 31
149 159 158 163 165 168 159 156 151 145 145 146 148 150 146 145 144 143 148 144 144 136 131 127 124 124 121 123 121 108 98 97 98 100 99 91 84 73 71 68 68 66 61 58 58 56 57 54 50 47 43 38 35 32 31 30 30 29 27 25 23 21 19 17 15 13 12 14 13 15 5 360 356 344 23 69 74 68 60 53 52 43 35 28 24
154 160 153 156 161 178 158 157 155 149 151 152 152 152 148 144 141 142 143 143 142 137 134 131 129 124 123 119 112 109 106 104 103 101 92 84 79 76 70 71 72 71 66 66 62 59 59 57 53 49 45 40 36 32 29 29 28 26 24 21 20 19 17 14 12 13 14 11 12 10 3 358 355 348 6 53 65 64 58 55 49 44 40 33 27
152 158 155 157 162 178 158 162 158 160 157 160 157 155 158 155 150 147 150 146 147 138 140 136 134 131 124 117 122 123 123 121 124 102 89 86 81 78 76 74 73 71 70 69 66 64 61 59 56 52 47 41 37 34 31 29 27 25 23 20 18 17 16 13 11 11 17 17 7 4 357 354 355 348 353 42 63 65 53 46 43 38 40 36 25
147 160 164 154 164 183 165 166 164 168 164 171 169 166 164 165 157 163 161 162 162 152 147 151 144 147 153 157 143 137 134 139 134 104 95 90 85 80 77 76 76 75 73 69 68 64 63 60 59 56 52 46 41 37 34 32 29 27 25 21 19 18 16 15 14 13 16 18 7 360 354 350 351 349 340 17 56 60 54 48 39 34 37 38 27
159 168 163 158 176 181 180 175 166 172 176 173 175 173 171 171 171 165 164 165 162 165 166 167 163 156 153 154 150 145 143 143 120 101 96 92 90 87 83 79 77 78 75 72 71 70 68 65 61 58 56 52 48 44 38 34 32 30 27 25 22 21 21 21 21 20 18 14 5 357 348 350 349 345 336 5 48 56 61 54 33 26 27 36 30
162 164 166 164 175 185 184 188 174 180 179 179 175 173 180 174 173 173 172 170 170 176 168 173 173 175 167 162 156 152 149 130 111 106 102 98 93 91 87 85 83 81 78 77 74 72 70 69 65 61 60 58 54 48 44 38 35 33 32 31 30 28 27 25 24 22 19 11 7 6 355 3 352 344 333 8 44 48 62 62 32 351 6 30 27
161 168 168 165 180 181 178 179 173 181 183 184 185 182 186 183 181 183 188 182 184 178 180 175 171 164 163 162 155 145 129 118 112 108 104 102 97 93 90 88 87 84 82 80 78 73 71 69 67 66 63 61 56 52 48 44 41 38 37 36 33 30 28 27 25 18 15 14 10 11 355 1 355 328 341 11 27 53 49 39 16 10 22 21 25
167 169 170 171 180 177 172 185 174 180 187 184 184 184 183 181 182 178 175 175 172 172 169 170 168 166 160 151 141 132 125 120 115 111 107 104 101 97 94 92 89 86 84 81 78 77 75 72 72 72 68 65 60 55 51 48 45 42 41 37 33 32 28 28 28 18 17 14 16 9 360 359 353 354 24 28 36 42 35 34 29 27 27 23 20
169 171 173 173 179 176 177 181 180 181 181 181 181 183 180 181 179 177 174 172 172 171 169 170 165 157 150 143 138 131 126 122 118 114 112 107 104 101 98 94 89 88 85 81 79 80 78 76 76 75 74 70 64 60 56 51 48 47 44 40 36 33 29 30 26 21 18 16 15 10 3 357 344 7 20 24 30 38 37 38 36 35 34 33 32
163 171 174 175 172 187 184 179 182 182 181 183 183 183 181 180 180 177 176 174 174 171 171 165 158 154 149 144 138 133 128 124 121 119 115 111 107 104 100 96 93 89 86 83 81 80 78 77 77 76 75 72 68 64 61 57 53 49 45 42 38 35 31 26 25 22 19 17 10 10 6 355 345 15 18 22 25 26 27 26 27 26 24 23 21
162 170 173 173 174 185 195 177 180 182 183 185 185 182 182 181 179 178 177 176 173 171 167 160 157 153 149 145 140 136 131 128 124 121 117 114 111 107 103 100 97 93 90 86 83 81 79 78 75 74 73 72 70 67 64 61 58 53 49 45 40 37 36 28 25 19 17 15 9 7 3 350 1 16 17 19 22 24 23 20 20 21 19 17 15
160 166 168 174 175 182 186 181 180 182 186 186 184 183 183 181 179 178 176 173 171 168 162 160 157 153 151 147 142 138 133 130 127 122 120 118 116 112 108 103 100 96 92 87 84 82 78 74 73 72 70 69 69 67 64 62 60 56 52 47 43 39 37 38 28 22 15 12 6 6 357 346 3 12 16 18 19 21 22 20 19 18 16 16 13
161 161 164 178 177 181 176 179 184 179 185 189 183 184 183 181 179 176 173 170 167 164 162 160 157 154 151 147 142 138 134 131 128 125 122 120 118 114 109 105 102 99 94 89 85 82 77 74 70 67 66 65 66 66 64 61 59 55 52 48 44 40 39 40 34 25 14 14 10 359 349 341 5 11 14 15 16 19 20 18 17 17 15 14 14
171 168 176 176 180 184 179 180 185 181 188 187 179 181 179 179 177 173 169 168 167 164 162 159 156 153 148 143 139 138 136 133 129 126 124 123 120 118 114 109 106 102 98 93 89 84 80 76 73 70 68 65 62 63 63 61 57 54 50 46 42 38 36 39 39 26 19 14 10 353 339 1 7 13 13 13 14 15 17 15 15 13 12 12 12
189 197 183 174 189 181 184 184 186 181 183 175 176 183 175 176 174 171 169 168 167 163 160 158 154 148 142 138 137 135 135 131 124 120 118 117 118 114 115 112 109 106 102 97 93 88 84 80 77 74 70 65 62 60 62 61 59 55 49 43 36 32 31 32 30 25 22 12 8 358 335 6 7 12 14 15 14 13 13 13 12 12 10 9 9
210 208 199 201 184 183 187 185 182 182 176 173 178 179 177 177 174 171 169 169 166 162 160 155 145 138 134 126 115 111 106 113 115 113 114 111 104 106 110 109 108 106 102 100 97 93 89 84 79 75 70 65 59 53 52 55 57 55 51 43 36 32 28 22 20 19 17 9 8 346 354 7 6 8 11 15 14 14 14 11 10 9 8 8 7
220 221 205 201 195 187 189 184 190 182 178 176 179 181 183 175 172 168 168 168 164 163 158 141 133 131 127 123 118 114 115 107 102 104 95 96 99 98 102 104 103 103 101 99 97 92 88 84 82 78 73 65 54 46 41 45 47 48 47 44 38 36 26 25 18 13 15 1 2 335 3 5 6 5 7 10 13 13 11 9 9 8 6 6 6
204 212 221 205 194 199 190 188 185 190 180 180 180 181 187 167 161 166 166 166 162 156 136 133 132 134 131 126 130 132 128 126 124 116 106 99 100 98 97 97 94 92 93 92 91 87 83 81 79 77 73 64 55 47 37 32 35 41 43 44 39 33 26 24 21 13 13 357 1 341 4 3 5 4 5 5 9 11 7 8 11 9 7 5 3
210 210 212 204 198 190 191 192 191 185 182 183 180 184 185 156 161 161 167 160 159 136 138 136 134 139 137 140 138 134 135 131 128 129 123 112 105 102 99 94 91 90 93 93 91 88 86 82 80 77 70 61 50 45 43 42 33 30 32 35 44 35 28 24 20 15 7 351 356 349 3 2 3 3 4 4 6 6 5 8 9 9 8 5 3
209 203 199 194 197 196 196 192 189 184 180 184 180 185 179 157 160 167 169 158 148 144 145 144 145 144 148 146 140 141 135 135 126 108 101 97 93 90 95 90 85 74 64 56 67 80 79 79 80 73 63 57 55 44 44 34 38 37 32 31 36 39 39 30 20 9 1 353 343 352 1 2 3 3 4 6 6 6 6 7 7 9 9 8 7
202 175 182 202 201 199 190 194 187 185 183 183 180 186 173 157 172 181 172 164 156 154 156 154 156 151 152 149 148 139 132 117 103 99 96 99 96 93 91 90 89 85 87 85 76 73 71 67 60 65 62 65 59 41 41 37 29 30 36 28 28 32 35 33 22 11 359 352 340 354 359 360 2 4 5 7 10 9 8 6 8 9 10 9 9
165 188 206 200 201 199 193 189 186 190 190 183 184 178 160 177 183 188 176 175 166 165 163 165 164 162 157 154 145 132 129 116 108 110 111 114 115 116 113 114 106 109 107 110 101 97 86 85 88 81 65 66 63 52 38 43 32 27 26 23 20 17 19 18 16 8 360 353 343 353 357 358 3 5 6 8 13 12 12 10 9 10 10 10 10
198 210 201 205 199 200 196 186 193 190 195 185 178 174 181 182 181 185 177 185 174 169 177 173 174 169 165 163 150 150 141 135 131 136 143 139 133 133 133 127 129 130 130 125 123 122 122 113 97 89 75 68 57 50 48 38 38 36 27 24 18 16 14 11 5 2 354 352 343 349 353 357 1 4 7 10 13 13 14 14 12 13 11 10 11
207 215 202 200 196 201 195 190 196 191 192 185 181 184 180 179 187 191 195 182 171 181 178 180 169 176 173 173 159 156 154 151 157 158 164 150 152 149 138 133 137 148 144 137 133 135 126 116 105 88 82 71 74 52 46 40 34 39 37 24 16 18 14 8 4 357 350 347 345 342 351 354 357 2 7 10 13 14 16 16 14 15 14 12 12
216 210 204 199 202 195 191 198 196 196 191 183 190 186 180 183 187 195 197 186 184 182 178 169 175 177 178 173 162 154 154 154 167 170 154 164 157 153 152 155 150 161 149 155 146 143 136 132 121 117 111 103 92 75 65 53 49 46 47 29 21 17 13 7 1 353 349 344 343 339 349 351 355 360 4 6 11 13 16 17 15 16 15 14 12
216 207 201 208 196 188 194 200 197 194 190 183 194 186 186 188 194 197 193 187 191 180 171 179 177 171 181 181 176 166 167 170 170 166 166 170 164 156 158 165 166 167 161 161 171 148 145 138 134 132 126 126 115 124 120 93 55 44 41 36 21 15 11 3 354 350 338 340 341 340 344 349 352 357 360 2 6 11 13 15 15 15 14 13 11
207 213 209 207 194 186 200 199 196 192 185 193 192 194 185 195 195 194 188 193 181 172 181 178 173 182 181 178 178 173 162 164 168 169 173 165 165 164 172 167 171 180 174 166 164 159 154 149 151 149 146 141 135 152 145 121 102 62 41 43 20 15 10 2 349 340 341 336 339 339 336 344 348 352 356 358 2 5 9 11 14 11 11 10 9
205 216 210 193 189 200 198 195 194 188 188 195 193 194 194 196 194 189 194 190 172 181 182 180 183 183 177 179 179 176 164 169 167 171 176 170 172 173 173 172 185 183 177 166 161 158 151 150 145 141 142 133 125 113 105 91 60 46 29 32 20 22 16 2 349 337 335 340 339 338 339 337 342 348 352 354 359 358 2 6 8 8 8 7 6
217 215 199 186 201 198 195 197 190 189 191 193 194 195 193 192 190 195 192 183 181 179 185 187 184 181 177 181 181 174 173 171 175 175 179 177 172 171 176 185 183 178 175 168 153 148 138 137 128 122 98 92 86 52 46 60 51 24 25 14 14 17 18 6 348 341 343 340 341 333 333 336 336 343 347 349 350 351 356 0 2 2 3 4 2
212 202 185 203 201 195 194 189 190 193 196 193 191 192 193 192 193 193 189 183 186 185 191 188 182 179 179 181 179 177 174 173 168 176 175 177 178 181 179 185 184 179 168 161 155 160 148 134 134 111 98 88 80 53 46 39 28 23 25 0 5 5 6 8 356 337 331 338 335 335 334 333 337 339 338 340 344 345 349 353 355 357 358 0 359
204 198 200 208 190 193 186 192 192 195 193 194 193 194 190 190 190 190 191 187 185 189 189 183 184 184 175 181 181 179 177 175 174 172 178 179 180 182 189 190 179 174 168 173 154 154 143 138 138 109 100 81 77 62 58 55 30 13 355 354 347 357 15 4 347 347 347 332 340 336 329 331 331 340 333 338 337 339 341 346 350 352 356 359 357
206 206 208 191 194 194 190 193 189 194 195 195 194 192 190 190 189 189 187 186 185 191 189 188 185 177 180 180 183 181 177 177 176 172 175 184 184 187 190 181 181 171 168 164 155 146 137 120 122 134 111 90 94 53 42 50 27 5 336 337 330 360 14 358 347 348 332 341 337 328 320 315 321 317 336 338 331 328 334 341 345 351 355 356 351
207 204 200 194 198 193 192 192 190 194 195 194 191 190 187 189 189 187 187 184 188 192 191 179 177 182 184 183 183 183 179 179 178 176 176 183 187 188 188 185 178 171 164 165 152 151 136 122 92 90 116 126 102 103 59 49 11 334 321 325 319 1 7 343 330 318 349 1 327 317 326 324 324 339 332 327 324 319 325 334 341 347 352 349 344
209 205 202 194 197 192 193 195 196 193 192 190 189 188 188 185 185 184 182 187 193 193 184 173 185 188 182 189 182 182 181 181 178 177 182 186 186 185 184 184 175 165 158 154 151 138 124 123 114 75 110 117 101 83 34 15 357 334 336 327 324 33 334 324 323 12 25 343 335 334 318 317 332 331 335 334 330 325 324 328 336 343 344 341 342
208 205 200 201 197 191 192 196 191 188 189 186 183 181 175 173 165 171 181 189 193 193 178 185 190 183 191 188 180 184 183 181 179 178 181 182 182 186 184 182 172 162 154 146 143 138 129 116 126 112 84 92 113 106 82 305 309 4 337 316 321 1 320 293 93 54 3 299 317 325 341 323 328 328 330 333 322 326 326 327 333 337 335 337 341
206 198 199 196 195 191 192 193 192 185 180 173 171 175 171 177 178 172 190 199 193 190 192 194 183 191 192 186 185 186 182 182 182 180 180 179 181 184 181 178 176 165 159 155 160 161 154 134 135 127 116 80 50 58 24 10 351 73 12 325 321 336 339 147 104 173 101 345 337 331 330 313 333 319 328 315 316 310 312 314 326 331 337 337 338
201 193 194 197 195 193 184 193 189 180 175 176 179 176 179 179 189 196 200 191 194 191 191 193 193 196 188 186 185 187 183 181 182 176 183 182 183 176 176 184 178 174 171 171 161 154 152 142 136 115 117 86 35 9 26 52 35 17 35 18 343 354 29 43 182 160 71 334 9 5 321 326 318 334 323 319 320 314 310 320 322 336 336 334 328
207 194 198 199 197 192 191 193 179 183 186 184 182 183 186 186 184 192 192 191 186 186 196 196 197 190 186 188 189 187 184 185 179 182 183 179 177 182 183 182 178 177 166 147 150 153 146 143 146 81 30 121 108 335 340 56 29 87 9 332 345 343 8 38 83 268 321 360 30 14 320 321 327 327 336 339 326 322 318 317 332 337 331 328 319
199 198 203 196 194 192 197 187 186 184 189 184 180 189 189 191 189 188 186 185 194 195 192 185 173 183 192 192 189 188 183 185 182 183 181 186 186 179 186 179 180 165 154 159 162 159 163 162 173 142 107 52 97 335 7 47 139 142 141 79 355 11 328 4 340 307 329 6 19 17 341 4 326 337 330 332 324 320 318 329 333 332 326 320 315
206 208 201 198 195 198 193 188 188 188 185 187 189 188 183 177 167 126 154 142 167 161 156 147 175 179 201 194 193 187 186 187 182 183 186 186 184 187 177 180 182 181 169 162 169 168 166 170 163 155 136 111 85 57 350 21 127 133 18 83 198 114 324 342 338 297 354 300 241 355 28 336 324 342 4 345 319 313 311 324 324 321 315 311 309
207 204 199 197 197 197 192 188 185 186 186 184 181 167 147 129 117 94 101 91 80 136 152 187 194 200 190 192 201 184 185 187 183 185 185 186 186 184 181 183 178 182 175 170 175 179 175 171 167 156 164 146 159 158 309 26 98 167 143 105 38 6 220 236 332 283 335 328 261 11 334 319 320 325 348 314 309 297 301 315 313 312 307 306 305
213 212 201 201 193 193 189 186 183 184 184 181 174 166 171 164 157 156 164 176 179 174 191 201 196 195 203 180 171 189 187 188 185 185 187 182 186 186 182 176 183 181 184 179 160 149 171 175 189 170 157 167 139 137 129 283 5 50 118 130 164 177 185 234 85 288 314 250 325 352 294 284 298 323 335 324 309 297 304 305 306 299 297 298 296
221 206 198 198 196 190 185 183 183 183 182 178 173 171 172 177 180 182 181 183 191 204 205 201 191 196 170 179 187 178 188 186 187 185 187 184 181 181 181 185 184 182 175 162 174 185 179 179 172 175 170 145 134 134 159 173 49 332 22 62 68 67 119 121 204 40 319 314 256 299 313 288 306 314 318 317 301 298 293 290 297 291 288 282 280
210 178 195 190 189 185 179 183 183 182 180 174 178 179 178 180 183 188 190 195 198 202 196 192 177 161 177 180 173 184 184 189 185 188 186 184 180 181 182 182 183 187 179 185 184 176 162 171 178 172 157 165 159 148 158 170 156 202 112 79 80 61 62 71 102 152 164 304 307 308 228 301 348 300 301 297 284 290 298 299 295 294 289 282 274
190 192 189 187 184 180 180 179 183 180 179 178 180 184 184 182 184 185 194 205 202 196 159 162 166 167 177 173 180 183 185 190 190 186 187 186 183 183 181 184 186 187 186 182 180 174 178 171 171 171 175 172 163 150 147 176 169 164 140 136 95 89 71 70 101 105 146 150 279 289 294 262 260 273 287 309 294 284 270 272 270 272 276 280 265
193 182 177 169 173 170 177 178 185 181 178 179 181 185 186 182 189 195 197 197 191 168 160 171 173 171 184 184 185 182 187 187 192 189 188 189 187 183 185 189 190 184 184 184 176 179 183 182 181 176 167 165 165 159 166 167 172 158 163 151 140 111 84 79 122 145 222 186 247 280 299 319 321 286 314 306 294 269 273 276 277 270 263 259 260
178 172 171 172 170 172 175 181 185 177 178 182 181 186 188 189 195 195 197 195 187 174 169 179 175 176 191 189 187 190 184 193 186 193 192 187 191 188 189 192 185 183 183 181 186 183 184 182 176 168 173 169 172 163 146 158 154 160 166 168 171 170 173 173 184 178 164 177 201 256 273 266 268 305 314 340 313 302 288 267 262 261 261 263 250